Airfield :
LOGIN :

Register | Disclaimer

   EN    FR    IT 

 










Legend :    VFR   Marginal VFR   IFR   Intensive IFR   Very Intensive IFR
Visi :
Ceiling :
>= 8 km
>= 3000ft
5 to 8 km
1000 to 3000 ft
1500m to 5 km
500 to 1000 ft
800 to 1500m
200 to 500 ft
< 800m
< 200 ft
Symbols :   Thunderstorms  Fog  Heavy snow  Heavy precipitations  Wind > 20 kt
SIGMETs :     Misc.  Thunderstorms  Icing  Turbulence  Mountain Waves  Volcanic Ashes







- Airport Elevation : 5600 ft
- IATA code : SMV


LSZS - Samedan

CURRENT METAR :
  • 241720Z 22004KT 160V290 CAVOK 05/M05 Q1021 RMK W

EXPIRED METARs :
  • 241650Z VRB02KT CAVOK 06/M05 Q1021 RMK V
  • 241620Z VRB01KT CAVOK 08/M06 Q1021 RMK U
  • 241550Z VRB02KT CAVOK 10/M06 Q1021 RMK T
  • 241520Z 24008KT CAVOK 08/M06 Q1021 RMK S
  • 241450Z 24008KT CAVOK 09/M07 Q1021 RMK R

TAF TAF LSZS
Valid from the 24 at 15:00 until the 25 at 00:00 UTC


241425Z 2415/2424 21006KT CAVOK TX12/2415Z
ATIS : +41 81 834 93 24
No reported NOTAMs for that airfield.



MET'MAP, your aeronautical weather chart ! - Copyright ORBIFLY December 2007 - Disclaimer

ORBIFLY MET'MAP TEAM :

Programming & Development : Alexandra Zaïnal
Concept & Development : Baudouin d'Aumeries
Co-Development & Prog : Marc-Olivier Méhu
Technical & hardware support : Manuel Goepfert

Contact : metmap@orbifly.com




SOURCES & CREDITS :

   NOAA